Satellite: NCUBE2
Catalog number: 28897
Epoch time:      07044.26177427
Element set:    0186
Inclination:      098.1478 deg
RA of node:       303.4131 deg
Eccentricity:    0.0017901
Arg of perigee:   137.9853 deg
Mean anomaly:     222.2688 deg
Mean motion:   14.59673318 rev/day
Decay rate:       1.54e-06 rev/day^2
Epoch rev:           06129
Checksum:              322

Satellite: NMARS
Catalog number: 29662
Epoch time:      07046.80902947
Element set:      77
Inclination:      051.6378 deg
RA of node:       007.6030 deg
Eccentricity:    0.0009125
Arg of perigee:   218.5004 deg
Mean anomaly:     141.5452 deg
Mean motion:   15.89407629 rev/day
Decay rate:     8.7396e-04 rev/day^2
Epoch rev:             890
Checksum:              308

Satellite: FCAL
Catalog number: 29664
Epoch time:      07045.95250205
Element set:    0059
Inclination:      051.6363 deg
RA of node:       013.1210 deg
Eccentricity:    0.0014475
Arg of perigee:   220.5865 deg
Mean anomaly:     139.4059 deg
Mean motion:   15.84374766 rev/day
Decay rate:     2.3560e-04 rev/day^2
Epoch rev:           00873
Checksum:              289

/EX





More information about the Keps mailing list